カタログに戻る

DELTA 1 DEB

運用中PO
NORAD 42655·DEBRIS·🇺🇸 United States

打ち上げ Jun 12, 1975 から Vandenberg Space Force Base

Loading…

次のパス (今後24時間)

TLE

経年Source: Space-Track

元期: Sep 4, 2026, 17:10 UTC

1 42655U 75052MQ  26247.71596662 -.00000544  00000-0 -80275-3 0  9994
2 42655  99.6059 217.1386 0568087 286.3280  67.6102 12.98686166606033

AllMySatでDELTA 1 DEBをリアルタイム追跡

Download on the App Store